Regional Weather Roundup
Issued by NWS Kansas City/Pleasant Hill, MO

Home | Current Version | Previous Version | Text Only | Print | Product List | Glossary On
Versions: 1 2 3 4 5 6 7 8 9 10 11 12 13 14 15 16 17 18 19 20 21 22 23 24 25 26 27
000
ASUS43 KEAX 231610
RWREAX

WEATHER ROUNDUP FOR EASTERN KANSAS AND NORTHWEST MISSOURI
NATIONAL WEATHER SERVICE KANSAS CITY/PLEASANT HILL MO
1100 AM CDT MON OCT 23 2017

KSZ040-057-103>105-MOZ028-029-037-043-231700-
...KANSAS CITY METROPOLITAN AREA...

CITY           SKY/WX    TMP DP  RH WIND       PRES   REMARKS
K.C. INTL      PTSUNNY   59  42  53 N14G24    29.95R
K.C. DOWNTOWN  CLOUDY    58  43  57 NW10      29.95R
LEES SUMMIT    SUNNY     58  42  55 NW15      29.95R
OLATHE - IXD   CLOUDY    57  43  59 NW14      29.97R
OLATHE - OJC   CLOUDY    56  40  55 NW13      29.96R
LAWRENCE       PTSUNNY   61  43  51 NW17G25   29.97R

$$

MOZ001>008-011>017-020>025-030>033-038>040-044>046-053-054-231700-
...NORTHERN AND CENTRAL MISSOURI...

CITY           SKY/WX    TMP DP  RH WIND       PRES   REMARKS
ST. JOSEPH     MOSUNNY   61  42  49 N13G23    29.96R
MOSBY          MOSUNNY   57  41  54 NW13      29.94R
WARRENSBURG    SUNNY     59  43  55 W13G18    29.92F
WHITEMAN AFB   MOSUNNY   60  44  56 W14       29.87F
CLINTON        SUNNY     59  45  58 SW13      29.93F
SEDALIA        SUNNY     61  46  57 SW16G25   29.92F
WARSAW         NOT AVBL
CHILLICOTHE      N/A     60  43  53 NW10G17   29.92S
KIRKSVILLE     CLOUDY    54  47  77 SW7       29.88F

$$

MOZ041-047>049-056>058-063>065-088>090-097-231700-
...EASTERN AND SOUTHERN MISSOURI...

CITY           SKY/WX    TMP DP  RH WIND       PRES   REMARKS
ST. LOUIS INTL CLOUDY    58  47  66 NW9       29.91F
SPIRIT OF STL  PTSUNNY   56  50  80 W5        29.91F
COLUMBIA       SUNNY     61  47  59 SW12      29.90F
ROLLA          SUNNY     60  45  57 SW9       29.94F
OSAGE BEACH    SUNNY     60  46  59 SW7       29.94
SPRINGFIELD    SUNNY     63  45  51 SW13      29.96F
BRANSON        MOSUNNY   59  45  58 W12G21    30.02F
JOPLIN         CLOUDY    62  43  49 SW21G30   29.99F
WEST PLAINS    SUNNY     62  43  49 W12       30.00F

$$

IAZ060-094-KSZ022-034>040-054-083-096-NEZ052-066-093-231700-
...KANSAS...SOUTHEAST NEBRASKA AND IOWA...

CITY           SKY/WX    TMP DP  RH WIND       PRES   REMARKS
TOPEKA         MOSUNNY   63  45  51 NW12      30.00R
MANHATTAN      MOSUNNY   66  42  41 N9G20     30.05R
EMPORIA        CLOUDY    61  40  45 N13G18    30.04R
CHANUTE        PTSUNNY   59  44  57 NW15      30.00R
WICHITA        CLOUDY    63  42  46 N21G29    30.09R
OMAHA          PTSUNNY   64  40  41 NW26G33   29.97R
LINCOLN        SUNNY     64  33  31 NW25G40   30.06R
FALLS CITY     CLOUDY    63  39  41 N18G31    29.97R
LAMONI         SUNNY     60  42  51 N17G28    29.90S
DES MOINES     MOSUNNY   59  41  51 N8G18     29.87F

$$





USA.gov is the U.S. government's official web portal to all federal, state and local government web resources and services.